Location: Central Coast
(33.3208°S, 151.2336°E)
Time: 17:27:55
(UTC+11:00)

Tiangong 2 - Pass Details

Date: 10 October 2017
Orbit: 386 x 390 km, 42.8° (Epoch: 11 December)

Event Time Altitude Azimuth Distance (km) Brightness Sun altitude
Rises 19:54:07 0° 240° (WSW) 2,293 6.8 -11.1°
Reaches altitude 10° 19:56:50 10° 215° (SW) 1,435 4.8 -11.6°
Maximum altitude 19:58:51 15° 177° (S) 1,160 3.6 -12.0°
Drops below altitude 10° 20:00:51 10° 138° (SE) 1,433 3.7 -12.4°
Enters shadow 20:01:28 - 131° (SE) 1,596 3.9 -12.5°
